Savannah, GA

12:19 PM EDT on September 26, 2016 (GMT -0400)
Hunter Army Air Field

Weather History for KSVN - November, 2012

Change the Weather History Date:

Friday, November 30, 2012

  Actual Average Record
Temperature  
Mean Temperature 58 °F -  
Max Temperature 70 °F 64 °F 78 °F (2001)
Min Temperature 46 °F 43 °F 26 °F (2003)
Degree Days  
Heating Degree Days 7    
Growing Degree Days 8 (Base 50)    
Moisture  
Dew Point 50 °F    
Average Humidity 76    
Maximum Humidity 91    
Minimum Humidity 54    
Precipitation  
Precipitation 0.00 in - - ()
Sea Level Pressure  
Sea Level Pressure 30.32 in    
Wind  
Wind Speed 4 mph (ENE)    
Max Wind Speed 12 mph    
Max Gust Speed -    
Visibility 10 miles    
Events      
Averages and records for this station are not official NWS values.
T = Trace of Precipitation, MM = Missing Value Source: NWS Daily Summary

Daily Weather History Graph

Daily Weather History Graph

Search for Another Location

Airport or City:

Trip Planner

Search our weather history database for the weather conditions in past years. The results will help you decide how hot, cold, wet, or windy it might be!

Date:

Astronomy

Nov. 30, 2012 Rise Set
Actual Time 7:06 AM EST 5:19 PM EST
Civil Twilight 6:40 AM EST 5:46 PM EST
Nautical Twilight 6:10 AM EST 6:16 PM EST
Astronomical Twilight 5:40 AM EST 6:46 PM EST
Moon 7:12 PM EST (11/30) 8:38 AM EST (11/30)
Length of Visible Light 11h 06m
Length of Day
10h 13m
Waning Gibbous, 96% of the Moon is Illuminated
Nov 30
Waning Gibbous
Dec 6
Last Quarter
Dec 13
New
Dec 20
First Quarter
Dec 28
Full

Hourly Weather History & Observations

Time (EST) Temp. Dew Point Humidity Pressure Visibility Wind Dir Wind Speed Gust Speed Precip Events Conditions
12:55 AM 50.7 °F 46.0 °F 84% 30.34 in 10.0 mi NE 3.5 mph - N/A   Clear
1:55 AM 50.9 °F 46.2 °F 84% 30.34 in 10.0 mi NE 3.5 mph - N/A   Mostly Cloudy
2:55 AM 50.4 °F 45.7 °F 84% 30.34 in 10.0 mi Variable 3.5 mph - N/A   Partly Cloudy
3:55 AM 49.5 °F 45.1 °F 85% 30.32 in 10.0 mi NE 3.5 mph - N/A   Partly Cloudy
4:55 AM 48.7 °F 45.0 °F 87% 30.33 in 10.0 mi Calm Calm - N/A   Clear
5:55 AM 48.0 °F 44.4 °F 87% 30.33 in 10.0 mi Calm Calm - N/A   Clear
6:55 AM 46.2 °F 43.7 °F 91% 30.35 in 10.0 mi Calm Calm - N/A   Clear
7:55 AM 49.1 °F 45.9 °F 89% 30.35 in 10.0 mi Calm Calm - N/A   Partly Cloudy
8:55 AM 55.6 °F 48.9 °F 78% 30.36 in 10.0 mi NE 4.6 mph - N/A   Clear
9:55 AM 62.2 °F 50.9 °F 66% 30.37 in 10.0 mi NNE 5.8 mph - N/A   Clear
10:55 AM 67.5 °F 53.2 °F 60% 30.36 in 10.0 mi ENE 6.9 mph - N/A   Clear
11:55 AM 68.7 °F 53.4 °F 58% 30.34 in 10.0 mi ENE 9.2 mph - N/A   Partly Cloudy
12:55 PM 70.7 °F 53.1 °F 54% 30.30 in 10.0 mi East 11.5 mph - N/A   Clear
1:55 PM 69.8 °F 53.4 °F 56% 30.29 in 10.0 mi East 11.5 mph - N/A   Scattered Clouds
2:55 PM 68.5 °F 53.4 °F 58% 30.28 in 10.0 mi ENE 10.4 mph - N/A   Partly Cloudy
3:55 PM 65.8 °F 53.4 °F 64% 30.28 in 10.0 mi East 10.4 mph - N/A   Mostly Cloudy
4:55 PM 64.4 °F 54.1 °F 69% 30.29 in 10.0 mi East 6.9 mph - N/A   Mostly Cloudy
5:55 PM 61.3 °F 52.9 °F 74% 30.29 in 10.0 mi ENE 5.8 mph - N/A   Scattered Clouds
6:55 PM 59.4 °F 52.2 °F 77% 30.29 in 10.0 mi ENE 6.9 mph - N/A   Clear
7:55 PM 57.6 °F 50.9 °F 78% 30.30 in 10.0 mi ENE 5.8 mph - N/A   Clear
8:55 PM 55.0 °F 50.2 °F 84% 30.30 in 10.0 mi East 3.5 mph - N/A   Clear
9:55 PM 55.0 °F 51.3 °F 87% 30.29 in 10.0 mi East 5.8 mph - N/A   Clear
10:55 PM 56.5 °F 52.0 °F 85% 30.30 in 10.0 mi East 4.6 mph - N/A   Clear
11:55 PM 54.0 °F 50.0 °F 86% 30.30 in 10.0 mi Calm Calm - N/A   Partly Cloudy